Regional Weather Roundup
Issued by NWS Charleston, SC

Current Version | Previous Version | Graphics & Text | Print | Product List | Glossary On
Versions: 1 2 3 4 5 6 7 8 9 10 11 12 13 14 15 16 17 18 19 20 21 22 23 24 25 26 27 28 29 30 31 32 33 34 35 36 37 38 39 40 41 42 43 44 45 46 47 48 49 50
000
ASUS42 KCHS 291426
RWRCHS

REGIONAL WEATHER ROUNDUP
NATIONAL WEATHER SERVICE CHARLESTON SC
1000 AM EDT SUN MAR 29 2015

NOTE: "FAIR" INDICATES FEW OR NO CLOUDS BELOW 12,000 FEET WITH NO
SIGNIFICANT WEATHER AND/OR OBSTRUCTIONS TO VISIBILITY.

NOT ALL STATIONS ARE QUALITY CONTROLLED BY THE NATIONAL
WEATHER SERVICE. USE DATA WITH CAUTION...ESPECIALLY
DEWPOINT OBSERVATIONS.

SCZ027-030-031-034>040-042>050-291500-
...SOUTHEAST SOUTH CAROLINA...

CITY           SKY/WX    TMP DP  RH WIND       PRES   REMARKS
N CHARLESTON   SUNNY     43  16  33 N13       30.46R
WATERFRONT PRK   N/A     41 N/A N/A N14G20      N/A
MOUNT PLEASANT FAIR      43  16  33 N3        30.46R
PINOPOLIS        N/A     41  19  42 E10       30.36R
MONCKS CORNER  FAIR      43  14  31 NE10      30.46R
SUMMERVILLE    FAIR      43  19  39 N10G18    30.47R
BEAUFORT MCAS  SUNNY     44  17  33 NE8       30.45R
BEAUFORT ARPT  FAIR      45  25  45 NE16      30.44R
HILTON HEAD IS SUNNY     46  25  42 N9        30.44R
WALTERBORO     SUNNY     43  14  31 E15G21    30.46R
ALLENDALE      FAIR      45  16  31 VRB6G13   30.45R

...SOUTHERN MIDLANDS AND PEE DEE...

CITY           SKY/WX    TMP DP  RH WIND       PRES   REMARKS
GEORGETOWN     NOT AVBL
KINGSTREE      NOT AVBL
ORANGEBURG     SUNNY     42  13  30 E8        30.46R
BARNWELL       FAIR      45  18  33 NE8       30.46R
AIKEN          FAIR      39  12  33 E10       30.47R WCI  32
MANNING        FLURRIES  41  10  28 N9        30.47R
COLUMBIA       SUNNY     41  10  28 NE8       30.46R
SUMTER         SUNNY     39  12  33 NE10      30.45R WCI  32
FLORENCE       SUNNY     40  12  32 NE13      30.46R WCI  32
MYRTLE BEACH   SUNNY     39  16  38 N15       30.48R WCI  31
N MYRTLE BEACH SUNNY     39  15  37 NE13      30.45R WCI  31

$$

GAZ063-065-086>088-099>101-113>116-118-119-134>141-150-291500-
...SOUTHEAST GEORGIA...

CITY           SKY/WX    TMP DP  RH WIND       PRES   REMARKS
SAVANNAH ARPT  SUNNY     47  18  31 NE13      30.44R
HUNTER AAF     SUNNY     47  21  35 NE13      30.41R
FORT STEWART   SUNNY     46  24  43 NE10      30.41R
STATESBORO     SUNNY     45  22  39 E7        30.45R
SYLVANIA       SUNNY     44  23  43 E6        30.46R
CLAXTON        FAIR      45  25  45 E12       30.44R

...CSRA...CENTRAL AND FAR SOUTHEAST GEORGIA...

CITY           SKY/WX    TMP DP  RH WIND       PRES   REMARKS
THOMSON        SUNNY     44  23  44 CALM      30.49R
AUGUSTA-BUSH   SUNNY     42  15  33 E9        30.46R
AUGUSTA-DANIEL SUNNY     42  13  30 E12       30.44R
SWAINSBORO     FAIR      46   0  14 NE8       30.45R
VIDALIA        SUNNY     46  27  46 E10       30.42R
EASTMAN        FAIR      47  24  39 E6        30.46R
HAZLEHURST     FAIR      46  25  42 E8        30.42R
ALMA           SUNNY     46  25  43 NE7       30.41R
WAYCROSS       SUNNY     51  32  48 E5        30.42R
JESUP          FAIR      52  34  50 NE7       30.42R
BAXLEY         FAIR      50  27  40 NE10      30.41S
BRUNSWICK      SUNNY     54  37  54 NE12G21   30.41R
SAINT SIMONS   SUNNY     53  39  59 NE17G26   30.39R

$$

SCZ027-028-034-036>038-045-046-048>050-GAZ119-141-291500-
...LAKE AND SUPPLEMENTAL COASTAL OBSERVATIONS...

STATION/POSITION TIME  TEMP    WIND        PRES    WAVE   SWELL
                       AIR SEA DIR/SP/G            HT/PER HT/PER/DIR
                 (UTC) (F)     (DEG/KT/KT) (MB)    (FT/S) (FT/S/D)
UPR LAKE MARION  NOT AVBL
WINYAH BAY       1300   38      30/ 10     1029.0R
LAKE MURRAY      1400   37      60/  3/ 12 1030.8R
ACE BASIN NERRS  1300   40      20/  4     1026.0
FORT PULASKI     1300   44 60   40/ 14/ 19 1030.0R
SAPELO ISLAND    1400   53      30/ 15     1029.0R

$$

ANZ835-935-AMZ111-154-330-350-352-354-370-450-454-472-291500-
...C-MAN AND BUOY OBSERVATIONS...

STATION/POSITION TIME  TEMP    WIND        PRES    WAVE   SWELL
                       AIR SEA DIR/SP/G            HT/PER HT/PER/DIR
                 (UTC) (F)     (DEG/KT/KT) (MB)    (FT/S) (FT/S/D)
BUOY 41004       1350   47 67   30/ 19/ 23 1029.4R   6/ 6   2/ 9
BUOY 41008       1350   52 60   40/ 21/ 27 1028.4R   4/ 5   2/100/ 9
FOLLY BEACH CMAN 1400   41      20/ 16/ 20 1031.1R
CAPERS NEARSHORE NOT AVBL
FRIPP NEARSHORE  1300   45      40/ 21/ 25 1028.3R


STATION/POSITION TIME  TEMP    WIND        PRES    WAVE   SWELL
                       AIR SEA DIR/SP/G            HT/PER HT/PER/DIR
                 (UTC) (F)     (DEG/KT/KT) (MB)    (FT/S) (FT/S/D)
5E ST. MARYS GA  1321      60                N/A     3/ 4
FRYING PAN BUOY  1350   41 64   10/ 17/ 21 1030.5R   5/ 6   2/110/ 9
BUOY 41025       NOT AVBL
CAPE LOOKOUT NC  1400   35     350/ 16/ 20 1029.2R
BUOY 41002       1350   56 68  330/ 23/ 29 1025.2R  10/ 8
BUOY 41010       1320   64 76  330/ 16/ 21 1025.2R
ST AUGUSTINE FL  1400   55 59  360/ 13/ 15 1029.2R


$$



USA.gov is the U.S. government's official web portal to all federal, state and local government web resources and services.